Погода в Борисоглебске

Погода в Борисоглебске : погода сейчас, прогноз погоды и архив. Всё, что Вы хотите узнать о погоде в Борисоглебске!

Хотите узнать прогноз погоды в Борисоглебске? Тогда Вам сюда: Погода в Борисоглебске

Поиск расширенной информации на нашем сайте:

Другие новости

Новости СМИ2

Главная страница сайта

Новости сайта

02.10.2013

Напоминаем, что на нашем новом сайте вы можете получить высокодетализированные прогнозы погоды по пунктам России, СНГ и мира (включающие важные для авиации метеовеличины, такие как направление и скорость ветра, видимость, явления погоды, количество и форма облачности, нижняя и верхняя граница облачности), а также ознакомиться с разнообразными материалами по авиационной метеорологии и подборкой полезных ссылок на эту тему.

Сайт Метеоцентр.Азия посвящён разработке технологий оптимизации авиаметеорологического обслуживания, включая проектирование и перспективное создание нескольких автоматизированных авиаметеорологических систем:
- система выпуска высокодетальных прогностических карт явлений погоды для нижнего воздушного пространства по России и ближнему зарубежью;
- система верификации прогнозов TAF (выпускаемых синоптиками официальных АМСГ РФ и ближнего зарубежья) и AUTOTAF (выпускаемых сайтом Метеоцентр.Азия) - выявление ошибок, онлайн-сопоставление с фактической погодой METAR, автоматическое внесение коррективов в прогнозы при резком отклонении фактической погоды от прогноза, подсчёт оправдываемости прогнозов по элементам и в целом;
- система обработки, анализа и отображения авиаметеорологической информации для применения провайдерами метеорологической информации.


Погода в Борисоглебске - сегодня

Время (UTC), дата Ветер
(°,м/с) 
Видим.   Явления Облачность Т
(°С)
Тd
(°С)
f(%) Тe
(°С)
Pmin
(гПа)
dP
(гПа)
Po
(мм)
O2
(г/м3)
Тmin Tmax R s Состояние
почвы
00 25.04.17 300 (СЗ) 4000 м  дымка  ясно 
+2.5 +1.2 91 +3  1011.6  1.4  749  299           
03 25.04.17 320 (СЗ) 10 км    ясно 
+3.6 -1.4 70 +3  1014  2.4  751  299  +2.5        влажная 
06 25.04.17 310 (СЗ) 10 км    3/0 верхняя 
[Ci fib]
+7.3 +0.4 62 +6  1017.7  3.7  753  296           
09 25.04.17 320 (СЗ) 20000 м    8/8 1000 м 
[Cu hum]
+9.7 -2.2 43 +9  1019.4  1.9  755  294           
12 25.04.17 330 (СЗ) 3{10}  20000 м    8/8 1000 м 
[Cu hum]
+10.6 -2.2 41 +10  1020.1  0.7  755  293           
15 25.04.17 270 (З) 3{11}  20000 м    6/6 1000 м 
[Cu hum]
+11.9 -2.5 37 +12  1021.2  1.2  756  292    +13.2       
18 25.04.17 170 (Ю) 10 км    ясно 
+4.6 -1.8 63 +5  1023.4  1.7  758  300           
21 25.04.17 230 (ЮЗ) 10 км    ясно 
+4 -1.9 65 +5  1024.4  758  301           
00 26.04.17 210 (ЮЗ) 10 км    ясно 
+2.1 -2.9 69 +3  1025.2  0.7  759  304           
03 26.04.17 200 (Ю) 10 км    3/0 верхняя 
[Ci fib]
+2.4 -2.2 72 +2  1026.5  1.3  760  304  +1.3        замёрзшая 
06 26.04.17 180 (Ю) 20000 м    3/0 верхняя 
[Ci fib]
+9.9 +1.5 56 +9  1026.4  0.3  760  295           
09 26.04.17 180 (Ю) 4{10}  20000 м    6/6 1000 м 
[Cu hum]
+15.1 +1.1 39 +15  1026.3  0.1  760  290           
12 26.04.17 190 (Ю) 5-11{12}  20000 м    8/0 средняя 
[Ac trans]
+17 +1.5 35 +17  1025.6  -0.6  760  288           
15 26.04.17 170 (Ю) 4{11}  20000 м    ясно 
+16.5 +1.1 35 +17  1024.6  -1  759  288    +17.2       
18 26.04.17 190 (Ю) 3{10}  10 км    ясно 
+12.6 +1.9 48 +12  1025.4  0.6  759  292           
21 26.04.17 200 (Ю) 10 км    ясно 
+9.6 +2.5 61 +9  1026.2  0.7  760  295           
00 27.04.17 200 (Ю) 10 км    ясно 
+7.3 +1.9 69 +7  1027.4  761  298           
03 27.04.17 200 (Ю) 10 км    4/0 верхняя 
[Ci fib]
+6.4 +1.7 72 +6  1027.7  0.3  761  299  +6.1         
06 27.04.17 190 (Ю) 20000 м    4/0 верхняя 
[Ci fib]
+12.4 +1.3 47 +12  1027.4  761  293           
09 27.04.17 170 (Ю) 5-11{12}  20000 м    4/0 верхняя 
[Ci fib]
+17.5 -0.5 29 +18  1026.6  -0.5  761  288           
12 27.04.17 200 (Ю) 5-10{12}  20000 м    6/0 верхняя 
[Ci fib]
+20.6 +0.6 26 +21  1024.9  -1.6  759  284           
15 27.04.17 180 (Ю) 4-10{12}  20000 м    8/0 верхняя 
[Ci fib]
+19.3 +1.1 30 +20  1023.9  -1  759  285    +20.8       
18 27.04.17 160 (Ю) 3{10}  10 км    ясно 
+14.8 -0.2 36 +15  1025  0.8  759  290           
21 27.04.17 170 (Ю) 10 км    ясно 
+11.8 +1.1 48 +12  1025.6  0.5  760  293           
00 28.04.17 190 (Ю) 10 км    ясно 
+9.2 +1.1 57 +9  1026  0.3  760  296           
Время (UTC), дата Ветер
(°,м/с) 
Видим.   Явления Облачность Т
(°С)
Тd
(°С)
f(%) Тe
(°С)
Pmin
(гПа)
dP
(гПа)
Po
(мм)
O2
(г/м3)
Тmin Tmax R s Состояние
почвы

Для получения пояснительной информации подведите курсор к названию столбца.

ПОГОДА в Борисоглебске - архив

Всё, что Вы хотите узнать о погоде в Борисоглебске - удобно и подробно!

Выберите нужную дату (начиная с 1 января 2015* года) и нажмите кнопку "Найти".
Будут отображены архивные сводки погоды по пункту Борисоглебск, начиная с указанной даты.


Отображать данные в формате CSV (для использования в таблицах Excel)


Внимание! Наш архив погоды предназначен исключительно для личного некоммерческого использования в познавательных целях. Если Вам необходимы официальные справки о состоянии погоды (для производственных, юридических, коммерческих и т.п. целей), обращайтесь в органы Росгидромета.

*Примечание: данная дата относится к архиву по метеостанциям СССР (Россия, СНГ, Балтия).
Архив по метеостанциям Зарубежной Европы и Азии (кроме Китая) хранится 10 дней, по другим регионам земного шара (Китай, Африка, Америка, Австралия, Океания) - 1 день.

Борисоглебск - район местоположения метеостанции


Название, широта, долгота, высота метеостанции:
Борисоглебск 51.4°ш. 42.1°д. 106 м над ур. моря [Российская Федерация]

Дополнительная информация

В oтличие oт бoльшинства пoгoдных сайтoв мы публикуем пoдрoбную метеoинфoрмацию в детальнoм прoфессиoнальнoм фoрмате.

Характеристики температуры и влажнoсти вoздуха измеряются на высoте 2 м в тени вдали oт зданий и деревьев.
Скoрoсть ветра измеряется на высoте 10 м (на урoвне рoста челoвека скoрoсть ветра ниже в 1.5-2 раза). Если метеoстанция нахoдится в гoрoде или в лесу, тo скoрoсть ветра занижена на 2-4 м/с пo сравнению с oткрытым местoм. Скoрoсть ветра над акватoриями крупных рек и oзёр, а также на вершинах хoлмoв на 2-5 м/с выше, чем в oбычных услoвиях.
Атмoсфернoе давление в разных тoчках местнoсти мoжет значительнo oтличаться oт давления на метеoстанции, в зависимoсти oт услoвий рельефа (при пoдъёме на 10 м давление пoнижается примернo на 1 мм рт.ст.).